This is the latest recevied weather packets stored in our database for station/object R1CBW-13. If no packets are shown the sender has not sent any weather packets the latest 10 day(s).
| Time | Temp. | Humidity | Pressure | Rain* | Wind** | Luminosity | Snow |
|---|---|---|---|---|---|---|---|
| 1776954258 | 3.89° C | 36% | 1006.2 hPa | 0 mm | - | - | - |
| 1776954198 | 3.89° C | 37% | 1006.4 hPa | 0 mm | - | - | - |
| 1776954138 | 3.33° C | 37% | 1006.3 hPa | 0 mm | - | - | - |
| 1776954078 | 4.44° C | 35% | 1006.2 hPa | 0 mm | - | - | - |
| 1776954018 | 5° C | 35% | 1006.2 hPa | 0 mm | - | - | - |
| 1776953958 | 5° C | 36% | 1006.2 hPa | 0 mm | - | - | - |
| 1776953898 | 5° C | 36% | 1006.3 hPa | 0 mm | - | - | - |
| 1776953838 | 5° C | 36% | 1006.2 hPa | 0 mm | - | - | - |
| 1776953778 | 4.44° C | 36% | 1006.1 hPa | 0 mm | - | - | - |
| 1776953718 | 4.44° C | 36% | 1006.3 hPa | 0 mm | - | - | - |
| 1776953658 | 3.89° C | 36% | 1006.2 hPa | 0 mm | - | - | - |
| 1776953598 | 4.44° C | 36% | 1006.1 hPa | 0 mm | - | - | - |
| 1776953538 | 3.89° C | 37% | 1006.2 hPa | 0 mm | - | - | - |
| 1776953478 | 4.44° C | 35% | 1006.1 hPa | 0 mm | - | - | - |
| 1776953418 | 5° C | 35% | 1006.2 hPa | 0 mm | - | - | - |
| 1776953358 | 5° C | 35% | 1006.1 hPa | 0 mm | - | - | - |
| 1776953298 | 4.44° C | 35% | 1006.1 hPa | 0 mm | - | - | - |
| 1776953238 | 5° C | 35% | 1006.1 hPa | 0 mm | - | - | - |
| 1776953178 | 5° C | 36% | 1006.1 hPa | 0 mm | - | - | - |
| 1776953118 | 4.44° C | 36% | 1006.1 hPa | 0 mm | - | - | - |
| 1776953058 | 4.44° C | 36% | 1006.1 hPa | 0 mm | - | - | - |
| 1776952998 | 3.89° C | 36% | 1006.1 hPa | 0 mm | - | - | - |
| 1776952937 | 5° C | 35% | 1006.1 hPa | 0 mm | - | - | - |
| 1776952877 | 5° C | 35% | 1006.2 hPa | 0 mm | - | - | - |
| 1776952817 | 4.44° C | 36% | 1006.1 hPa | 0 mm | - | - | - |
* Rain latest hour (hover to see other rain measurements)
** Current wind speed in m/s (hover to see current wind gust speed)